Location: Melbourne
(37.8170°S, 144.9670°E)
Time: 23:07:52
(UTC+11:00)

ISS - Visible Passes

Search period start: 31 October 2014 00:00
Search period end: 10 November 2014 00:00
Orbit: 412 x 417 km, 51.6° (Epoch: 31 October)

Date Brightness Start Highest point End Pass type
(mag) Time Alt. Az. Time Alt. Az. Time Alt. Az.
31 Oct -1.1 05:04:33 10° SSW 05:07:32 28° SSE 05:10:30 10° E visible
01 Nov -0.4 04:15:42 10° SSW 04:18:14 19° SSE 04:20:44 10° ESE visible
02 Nov 0.0 03:26:54 10° SSW 03:28:49 14° SSE 03:30:43 10° SE visible
02 Nov -3.0 05:02:38 10° SW 05:06:01 71° SE 05:09:22 10° ENE visible
02 Nov -1.5 21:43:10 10° NW 21:44:30 22° NNW 21:44:30 22° NNW visible
03 Nov 0.4 02:40:19 10° SSE 02:40:19 10° SSE 02:40:20 10° SSE visible
03 Nov -1.8 04:13:32 10° SW 04:16:45 39° SE 04:19:56 10° ENE visible
03 Nov -2.5 20:54:17 10° NNW 20:57:20 32° NE 21:00:24 10° ESE visible
03 Nov -1.1 22:31:04 10° W 22:33:51 27° SW 22:33:51 27° SW visible
04 Nov -0.9 03:27:53 24° SE 03:27:53 24° SE 03:30:14 10° E visible
04 Nov -2.7 05:00:58 10° WSW 05:04:07 36° NW 05:07:14 10° NNE visible
04 Nov -2.1 21:41:23 10° WNW 21:44:38 44° SW 21:47:55 10° SE visible
04 Nov 0.2 23:20:46 10° SW 23:22:02 12° SSW 23:22:02 12° SSW visible
05 Nov -1.6 04:16:46 24° NE 04:16:46 24° NE 04:18:14 10° NE visible
05 Nov -3.1 20:51:54 10° NW 20:55:16 81° SW 20:58:40 10° SE visible
05 Nov -0.1 22:30:21 10° WSW 22:32:25 15° SSW 22:34:29 10° SSE visible
06 Nov -0.5 21:40:10 10° WSW 21:42:49 21° SSW 21:45:28 10° SSE visible
07 Nov -1.2 20:50:11 10° W 20:53:14 31° SSW 20:56:19 10° SSE visible
08 Nov 0.0 21:39:30 10° SW 21:41:01 12° SSW 21:42:32 10° S visible
09 Nov -0.3 20:49:00 10° WSW 20:51:15 16° SSW 20:53:30 10° SSE visible
